CW6666 Weather Reports


Display with metric or nautical units.
time (UTC)temp
F
wind
direction
speed
MPH
gust
MPH
rain 1hr
in
rain 24hr
in
rain mn
in
humidity
%
barometer
mb
20140421043826 86 105 4.0 7.0 0.00 0.00 0.08 82 1008.5
20140421042910 86 105 3.0 7.0 0.00 0.00 0.08 82 1008.5
20140421042322 86 103 4.0 7.0 0.00 0.00 0.08 84 1008.5
20140421041901 85 112 5.0 7.0 0.00 0.00 0.08 84 1008.5
20140421041337 85 106 5.0 6.0 0.01 0.00 0.08 83 1008.6
20140421040401 84 105 5.0 10.0 0.01 0.00 0.08 86 1008.6
20140421035844 84 111 10.0 10.0 0.02 0.00 0.08 86 1008.7
20140421035339 84 109 2.0 6.0 0.07 0.00 0.08 87 1008.7
20140421034856 84 105 4.0 6.0 0.07 0.00 0.08 87 1008.7
20140421034327 84 120 4.0 6.0 0.07 0.00 0.08 88 1008.9
20140421033357 83 130 3.0 4.0 0.07 0.00 0.08 88 1008.9
20140421032834 84 145 2.0 5.0 0.07 0.00 0.08 89 1009.0
20140421032413 83 150 2.0 5.0 0.07 0.00 0.08 89 1009.0
20140421031911 83 152 1.0 6.0 0.07 0.00 0.08 89 1009.0
20140421031352 83 124 2.0 6.0 0.07 0.00 0.08 88 1009.1
20140421030831 82 176 3.0 4.0 0.06 0.00 0.07 87 1009.1
20140421030352 82 130 1.0 7.0 0.06 0.00 0.07 85 1009.1
20140421025829 84 165 6.0 14.0 0.05 0.00 0.06 82 1009.3
20140421025354 85 114 8.0 14.0 0.00 0.00 0.01 79 1009.3
20140421024826 85 157 2.0 7.0 0.00 0.00 0.01 77 1009.3
20140421024341 87 196 6.0 10.0 0.00 0.00 0.01 76 1009.0
20140421023826 88 101 6.0 10.0 0.00 0.00 0.01 78 1009.0
20140421023346 88 109 6.0 9.0 0.00 0.00 0.01 80 1009.0
20140421022835 88 128 8.0 9.0 0.00 0.00 0.01 78 1009.3
20140421022352 88 106 6.0 8.0 0.00 0.00 0.01 78 1009.3
20140421021401 87 101 3.0 9.0 0.00 0.00 0.01 81 1009.5
20140421020829 87 113 5.0 9.0 0.00 0.00 0.01 81 1009.5
20140421020401 87 99 5.0 10.0 0.00 0.00 0.01 80 1009.5
20140421015824 87 112 3.0 10.0 0.00 0.00 0.01 80 1009.5
20140421015359 88 101 6.0 7.0 0.00 0.00 0.01 79 1009.5
20140421014830 88 107 4.0 10.0 0.00 0.00 0.01 80 1009.5
20140421013913 87 98 6.0 7.0 0.00 0.00 0.01 79 1009.5
20140421012901 87 107 5.0 9.0 0.00 0.00 0.01 80 1009.5
20140421012337 87 96 6.0 11.0 0.00 0.00 0.01 80 1009.5
20140421011824 87 120 11.0 11.0 0.00 0.00 0.01 81 1009.5
20140421010356 86 109 5.0 10.0 0.00 0.00 0.01 81 1009.7
20140421005838 86 124 4.0 8.0 0.00 0.00 0.01 82 1009.8
20140421005418 86 89 6.0 8.0 0.00 0.00 0.01 82 1009.8
20140421004403 85 116 4.0 9.0 0.00 0.00 0.01 83 1009.9
20140421003856 86 96 4.0 9.0 0.00 0.00 0.01 83 1009.9
20140421003335 85 121 5.0 8.0 0.00 0.00 0.01 86 1009.9
20140421002821 84 103 7.0 8.0 0.00 0.00 0.01 87 1010.0
20140421002400 83 92 6.0 10.0 0.00 0.00 0.01 86 1010.0
20140421001842 83 100 7.0 11.0 0.00 0.00 0.01 83 1010.0
20140421001328 85 111 5.0 11.0 0.00 0.00 0.01 82 1010.0
20140420235404 87 157 5.0 9.0 0.00 0.00 0.01 81 1010.0
20140420234348 87 113 5.0 7.0 0.00 0.00 0.01 82 1010.1
20140420233832 86 135 6.0 7.0 0.00 0.00 0.01 80 1010.1
20140420232341 86 100 6.0 11.0 0.00 0.00 0.01 81 1010.2
20140420231917 86 107 6.0 13.0 0.00 0.00 0.01 80 1010.2
20140420231344 86 118 9.0 13.0 0.00 0.00 0.01 81 1010.1
20140420230820 86 114 4.0 0.0 0.00 0.00 0.01 81 1010.1
20140420225845 85 111 6.0 0.0 0.00 0.00 0.01 82 1009.9
20140420225413 85 112 6.0 14.0 0.00 0.01 0.01 82 1009.9
20140420224409 84 95 13.0 14.0 0.00 0.01 0.01 86 1009.7
20140420223842 85 82 11.0 13.0 0.00 0.01 0.01 84 1009.7
20140420223409 85 82 11.0 13.0 0.00 0.01 0.01 85 1009.7
20140420222849 85 92 11.0 13.0 0.00 0.01 0.01 84 1009.6
20140420221858 86 107 9.0 12.0 0.00 0.01 0.01 83 1009.6
20140420221413 85 91 8.0 13.0 0.00 0.01 0.01 83 1009.5
20140420220844 85 99 10.0 13.0 0.00 0.01 0.01 83 1009.5
20140420220420 85 96 9.0 14.0 0.00 0.01 0.01 83 1009.5
20140420215907 85 107 11.0 14.0 0.00 0.01 0.01 82 1009.5
20140420215340 85 112 9.0 14.0 0.00 0.01 0.01 83 1009.5
20140420214916 85 99 11.0 14.0 0.00 0.01 0.01 82 1009.5
20140420214327 84 89 8.0 12.0 0.00 0.01 0.01 84 1009.2
20140420213913 84 109 10.0 14.0 0.00 0.01 0.01 84 1009.2
20140420213347 83 112 11.0 14.0 0.00 0.01 0.01 86 1009.2
20140420212823 83 138 12.0 14.0 0.00 0.01 0.01 85 1009.0
20140420212356 83 98 11.0 13.0 0.00 0.01 0.01 85 1009.0
20140420211832 83 105 10.0 13.0 0.00 0.01 0.01 86 1009.0
20140420211411 83 97 9.0 13.0 0.00 0.01 0.01 85 1009.0
20140420210847 83 132 11.0 13.0 0.00 0.01 0.01 86 1009.0
20140420210334 83 107 11.0 13.0 0.00 0.01 0.01 87 1009.0
20140420205830 83 101 8.0 13.0 0.00 0.01 0.01 86 1008.9
20140420205407 84 118 10.0 13.0 0.00 0.01 0.01 86 1008.9
20140420204855 84 109 8.0 13.0 0.00 0.01 0.01 86 1008.9
20140420204336 83 121 9.0 13.0 0.00 0.01 0.01 86 1008.6
20140420203917 83 122 9.0 13.0 0.00 0.01 0.01 86 1008.6
20140420203335 82 113 10.0 13.0 0.00 0.01 0.01 87 1008.6
20140420202837 83 111 9.0 13.0 0.00 0.01 0.01 89 1008.5
20140420202400 82 105 11.0 12.0 0.00 0.01 0.01 89 1008.5
20140420201843 82 107 12.0 15.0 0.00 0.01 0.01 89 1008.5
20140420201328 82 119 10.0 15.0 0.00 0.01 0.01 89 1008.5
20140420200353 83 82 11.0 14.0 0.00 0.01 0.01 89 1008.5
20140420195840 83 98 12.0 14.0 0.00 0.01 0.01 89 1008.5
20140420193850 83 134 7.0 14.0 0.00 0.01 0.01 88 1008.4
20140420192352 83 105 10.0 13.0 0.00 0.01 0.01 87 1008.1
20140420191856 83 111 9.0 13.0 0.00 0.01 0.01 87 1008.1
20140420191419 83 106 10.0 14.0 0.00 0.01 0.01 87 1008.0
20140420190852 83 86 12.0 14.0 0.00 0.01 0.01 88 1008.0
20140420190330 83 105 11.0 13.0 0.00 0.01 0.01 88 1008.0
20140420185854 83 102 11.0 13.0 0.00 0.01 0.01 88 1008.0
20140420183341 83 94 9.0 13.0 0.00 0.01 0.01 89 1008.0
20140420182822 82 101 8.0 13.0 0.00 0.01 0.01 89 1007.9
20140420182358 82 107 5.0 9.0 0.00 0.01 0.01 89 1007.9
20140420181825 82 111 6.0 13.0 0.00 0.01 0.01 88 1007.9
20140420181403 82 126 10.0 13.0 0.00 0.01 0.01 87 1007.5
20140420180828 82 111 9.0 12.0 0.00 0.01 0.01 89 1007.5
20140420180415 82 85 10.0 15.0 0.00 0.01 0.01 89 1007.5
20140420175911 82 85 12.0 15.0 0.00 0.01 0.01 88 1007.5
20140420175325 83 107 10.0 13.0 0.00 0.01 0.01 88 1007.5
20140420174400 83 88 11.0 13.0 0.00 0.01 0.01 89 1007.5
20140420173837 83 109 9.0 14.0 0.00 0.01 0.01 89 1007.5
20140420172901 83 100 10.0 14.0 0.00 0.01 0.01 89 1007.4
20140420172340 83 97 9.0 14.0 0.00 0.01 0.01 88 1007.4
20140420171824 83 97 10.0 14.0 0.00 0.01 0.01 88 1007.4
20140420171350 83 103 10.0 14.0 0.00 0.01 0.01 88 1007.5
20140420170821 83 101 11.0 13.0 0.00 0.01 0.01 88 1007.5
20140420170400 83 93 12.0 13.0 0.00 0.01 0.01 88 1007.5
20140420165829 83 103 11.0 13.0 0.00 0.01 0.01 88 1007.5
20140420163852 83 101 10.0 13.0 0.01 0.01 0.01 88 1007.5
20140420163328 83 88 13.0 14.0 0.01 0.01 0.01 88 1007.5
20140420162825 83 103 12.0 14.0 0.01 0.01 0.01 88 1007.6
20140420162357 82 90 11.0 14.0 0.01 0.01 0.01 89 1007.6
20140420161832 82 108 9.0 11.0 0.01 0.01 0.01 89 1007.6
20140420161404 82 93 8.0 11.0 0.01 0.01 0.01 90 1007.6
20140420160836 82 107 5.0 10.0 0.01 0.01 0.01 89 1007.6
20140420160401 82 124 6.0 11.0 0.01 0.01 0.01 89 1007.6
20140420155836 82 101 7.0 14.0 0.01 0.01 0.01 89 1007.7
20140420155324 82 117 9.0 14.0 0.01 0.01 0.01 89 1007.7
20140420154830 82 115 7.0 14.0 0.01 0.01 0.01 89 1007.7
20140420154338 82 107 11.0 15.0 0.00 0.00 0.00 89 1007.7
20140420153823 83 84 11.0 13.0 0.00 0.00 0.00 88 1007.7
20140420153336 83 94 10.0 14.0 0.00 0.00 0.00 88 1007.7
20140420152823 83 93 11.0 14.0 0.00 0.00 0.00 88 1007.9
20140420152330 83 98 9.0 13.0 0.00 0.00 0.00 88 1007.9
20140420151836 83 92 8.0 14.0 0.00 0.00 0.00 88 1007.9
20140420151330 83 102 10.0 13.0 0.00 0.00 0.00 88 1007.9
20140420150835 83 105 10.0 13.0 0.00 0.00 0.00 88 1007.9
20140420150328 83 96 12.0 13.0 0.00 0.00 0.00 89 1007.9
20140420145852 82 90 10.0 13.0 0.00 0.00 0.00 89 1007.9
20140420145424 82 90 9.0 18.0 0.00 0.00 0.00 88 1007.9
20140420144931 83 109 14.0 18.0 0.00 0.00 0.00 86 1007.9
20140420144336 83 95 11.0 14.0 0.00 0.00 0.00 88 1007.9
20140420143846 83 89 12.0 15.0 0.00 0.00 0.00 88 1007.9
20140420143333 83 94 11.0 15.0 0.00 0.00 0.00 88 1007.9
20140420142842 83 88 11.0 14.0 0.00 0.00 0.00 88 1007.9
20140420142351 83 110 11.0 13.0 0.00 0.00 0.00 89 1007.9
20140420141836 83 88 10.0 14.0 0.00 0.00 0.00 89 1007.9
20140420141345 83 98 12.0 14.0 0.00 0.00 0.00 89 1008.0
20140420140850 83 78 11.0 14.0 0.00 0.00 0.00 88 1008.0
20140420140423 83 78 11.0 14.0 0.00 0.00 0.00 88 1008.0
20140420135856 83 88 11.0 14.0 0.00 0.00 0.00 88 1008.0
20140420134918 83 86 10.0 13.0 0.00 0.00 0.00 88 1008.0
20140420134401 83 95 11.0 14.0 0.00 0.00 0.00 88 1008.2
20140420133838 83 88 11.0 14.0 0.00 0.00 0.00 88 1008.2
20140420132922 83 71 10.0 13.0 0.00 0.00 0.00 88 1008.4
20140420132422 83 76 9.0 13.0 0.00 0.00 0.00 88 1008.4
20140420131903 83 92 11.0 14.0 0.00 0.00 0.00 88 1008.4
20140420131425 83 82 11.0 14.0 0.00 0.00 0.00 88 1008.5
20140420130907 83 80 10.0 12.0 0.00 0.00 0.00 88 1008.5
20140420130443 83 84 10.0 12.0 0.00 0.00 0.00 88 1008.5
20140420125844 83 91 10.0 12.0 0.00 0.00 0.00 88 1008.5
20140420124920 83 86 7.0 12.0 0.00 0.00 0.00 89 1008.5
20140420124428 83 85 11.0 12.0 0.00 0.00 0.00 88 1008.5
20140420123915 83 80 10.0 13.0 0.00 0.00 0.00 88 1008.5
20140420123428 83 83 12.0 13.0 0.00 0.00 0.00 88 1008.5
20140420122845 83 72 11.0 13.0 0.00 0.00 0.00 89 1008.5
20140420122432 83 88 11.0 13.0 0.00 0.00 0.00 89 1008.5
20140420121920 83 87 10.0 12.0 0.00 0.00 0.00 89 1008.5
20140420120927 83 90 10.0 12.0 0.00 0.00 0.00 88 1008.5
20140420120459 83 83 11.0 13.0 0.00 0.00 0.00 88 1008.5
20140420115858 83 92 12.0 13.0 0.00 0.00 0.00 88 1008.3
20140420114928 83 89 10.0 12.0 0.00 0.00 0.00 89 1008.3
20140420114407 83 84 9.0 13.0 0.00 0.00 0.00 89 1008.3
20140420113915 83 85 11.0 13.0 0.00 0.00 0.00 89 1008.3
20140420113347 83 76 12.0 13.0 0.00 0.00 0.00 89 1008.3
20140420112837 83 82 10.0 14.0 0.00 0.00 0.00 88 1008.0
20140420112430 83 77 11.0 14.0 0.00 0.00 0.00 88 1008.0
20140420111404 83 75 12.0 13.0 0.00 0.00 0.00 89 1008.0
20140420110836 83 77 12.0 13.0 0.00 0.00 0.00 89 1008.0
20140420110429 83 76 11.0 13.0 0.00 0.00 0.00 89 1008.0
20140420105855 83 72 10.0 14.0 0.00 0.00 0.00 89 1007.9
20140420104407 83 68 11.0 14.0 0.00 0.00 0.00 89 1007.6
20140420103839 83 86 12.0 14.0 0.00 0.00 0.00 89 1007.6
20140420103424 83 78 11.0 14.0 0.00 0.00 0.00 89 1007.6
20140420102908 83 74 12.0 14.0 0.00 0.00 0.00 89 1007.5
20140420102510 83 88 11.0 14.0 0.00 0.00 0.00 89 1007.5
20140420101905 83 76 12.0 14.0 0.00 0.00 0.00 89 1007.5
20140420101454 83 85 12.0 15.0 0.00 0.00 0.00 88 1007.5
20140420100850 83 67 14.0 15.0 0.00 0.00 0.00 89 1007.5
20140420095340 83 76 13.0 15.0 0.00 0.00 0.00 88 1007.4
20140420094949 83 59 15.0 15.0 0.00 0.00 0.00 88 1007.4
20140420094357 83 63 13.0 14.0 0.00 0.00 0.00 88 1007.3
20140420093850 83 76 12.0 13.0 0.00 0.00 0.00 88 1007.3
20140420093420 84 73 12.0 13.0 0.00 0.00 0.00 88 1007.3
20140420092852 84 74 12.0 14.0 0.00 0.00 0.00 87 1007.1
20140420091919 84 67 12.0 14.0 0.00 0.00 0.00 87 1007.1
20140420091418 84 76 13.0 14.0 0.00 0.00 0.00 87 1007.0
20140420090851 84 80 10.0 12.0 0.00 0.00 0.00 86 1007.0
20140420085916 84 80 12.0 13.0 0.00 0.00 0.00 87 1006.8
20140420085336 84 86 10.0 12.0 0.00 0.00 0.00 86 1006.8
20140420084916 84 73 11.0 13.0 0.00 0.00 0.00 87 1006.8
20140420084447 84 75 12.0 13.0 0.00 0.00 0.00 86 1006.5
20140420083845 84 84 11.0 12.0 0.00 0.00 0.00 86 1006.5
20140420083408 84 91 11.0 13.0 0.00 0.00 0.00 86 1006.5
20140420082911 84 84 11.0 15.0 0.00 0.00 0.00 87 1006.4
20140420082352 84 78 12.0 15.0 0.00 0.00 0.00 87 1006.4
20140420081925 84 84 12.0 14.0 0.00 0.00 0.00 87 1006.4
20140420081401 84 69 10.0 12.0 0.00 0.00 0.00 87 1006.4
20140420080837 84 71 11.0 14.0 0.00 0.00 0.00 86 1006.4
20140420080413 84 68 11.0 14.0 0.00 0.00 0.00 86 1006.4
20140420075858 84 63 10.0 12.0 0.00 0.00 0.00 87 1006.3
20140420074921 84 76 11.0 13.0 0.00 0.00 0.00 86 1006.3
20140420074838 84 76 11.0 13.0 0.00 0.00 0.00 86 1006.3
20140420074441 84 68 10.0 13.0 0.00 0.00 0.00 87 1006.2
20140420073845 84 65 12.0 13.0 0.00 0.00 0.00 87 1006.2
20140420072931 84 66 11.0 13.0 0.00 0.00 0.00 86 1006.0
20140420072454 85 78 11.0 12.0 0.00 0.00 0.00 86 1006.0
20140420071839 85 75 9.0 12.0 0.00 0.00 0.00 85 1006.0
20140420071414 85 58 10.0 12.0 0.00 0.00 0.00 85 1005.9
20140420070853 85 72 10.0 11.0 0.00 0.00 0.00 85 1005.9
20140420070417 85 89 10.0 12.0 0.00 0.00 0.00 85 1005.9
20140420065843 85 69 10.0 12.0 0.00 0.00 0.00 85 1005.9
20140420065410 85 74 9.0 11.0 0.00 0.00 0.00 84 1005.9
20140420064837 85 69 9.0 11.0 0.00 0.00 0.00 85 1005.9
20140420064404 85 65 9.0 11.0 0.00 0.00 0.00 85 1005.9
20140420063843 85 84 8.0 11.0 0.00 0.00 0.00 85 1005.9
20140420063424 85 68 10.0 11.0 0.00 0.00 0.00 84 1005.9
20140420062853 85 71 10.0 12.0 0.00 0.00 0.00 85 1005.9
20140420061857 86 71 11.0 11.0 0.00 0.00 0.00 83 1005.9
20140420061427 87 89 9.0 11.0 0.00 0.00 0.00 82 1005.9
20140420060412 87 84 10.0 11.0 0.00 0.00 0.00 82 1005.9
20140420055848 87 85 9.0 12.0 0.00 0.00 0.00 80 1006.0
20140420054932 87 88 10.0 12.0 0.00 0.00 0.00 80 1006.0
20140420054355 87 86 11.0 11.0 0.00 0.00 0.00 79 1006.1
20140420053838 87 94 8.0 12.0 0.00 0.00 0.00 80 1006.1
20140420052932 87 92 10.0 12.0 0.00 0.00 0.00 78 1006.4
20140420052404 87 97 9.0 12.0 0.00 0.00 0.00 78 1006.4
20140420051848 87 88 10.0 12.0 0.00 0.00 0.00 78 1006.4
20140420051402 87 86 11.0 12.0 0.00 0.00 0.00 79 1006.4
20140420050858 87 86 10.0 12.0 0.00 0.01 0.00 80 1006.4
20140420050343 87 90 9.0 12.0 0.00 0.01 0.00 80 1006.4
20140420045839 87 98 10.0 12.0 0.00 0.01 0.00 79 1006.4
20140420045408 87 90 10.0 12.0 0.00 0.01 0.00 81 1006.4
20140420044900 87 93 9.0 12.0 0.00 0.01 0.00 80 1006.4
20140420044433 87 92 10.0 12.0 0.00 0.01 0.00 81 1006.4
20140420043919 87 86 11.0 12.0 0.00 0.01 0.00 82 1006.4